This demonstration page uses our WeatherBlox Daily Observations layout. Learn more.

Left ArrowRight Arrow

Hourly Observations for January 1, 2019

Temp ( °F °C ) Dew Point ( °F °C ) Humidity (%) Winds ( mph kmh ) Pressure ( in mb ) Visibility ( mi km ) Precip ( " mm )
12:06 am 00:06 Cloudy with Light Rain 65 18.3 65 18.3 100 100 WSW 5 7 30.03 1017 5 8 0.04 1.02
12:45 am 00:45 Cloudy with Light Rain 64 17.8 64 17.8 100 100 W 6 9 30.03 1017 10 16 0.08 2.03
12:53 am 00:53 Cloudy 64 17.8 64 17.8 100 100 Calm 30.02 1017 10 16 0.08 2.03
1:14 am 01:14 Cloudy with Light Rain 64 17.8 64 17.8 100 100 Calm 30.03 1017 9 14 0.00 0.03
1:53 am 01:53 Cloudy with Light Rain 64 17.8 64 17.8 100 100 Calm 30.02 1017 10 16 0.01 0.25
2:09 am 02:09 Cloudy 63 17.2 63 17.2 100 100 Calm 30.03 1017 7 11 0.00 0.03
2:14 am 02:14 Cloudy with Mist and Fog 63 17.2 63 17.2 100 100 Calm 30.03 1017 3 4 0.00 0.03
2:25 am 02:25 Cloudy with Mist and Fog 63 17.2 63 17.2 100 100 Calm 30.03 1017 2 3 0.00 0.03
2:28 am 02:28 Cloudy with Mist and Fog 63 17.2 63 17.2 100 100 Calm 30.03 1017 2 3 0.00 0.03
2:37 am 02:37 Cloudy with Mist and Fog 63 17.2 63 17.2 100 100 Calm 30.03 1017 6 10 0.00 0.03
2:44 am 02:44 Cloudy with Mist and Fog 63 17.2 63 17.2 100 100 Calm 30.03 1017 2 3 0.00 0.03
2:49 am 02:49 Cloudy with Mist and Fog 63 17 63 17 100 100 Calm 30.03 1017 1 1 0.00 0.03
2:53 am 02:53 Cloudy with Fog 63 17.2 63 17.2 100 100 Calm 30.02 1017 1 1 0.00 0.03
3:26 am 03:26 Cloudy with Mist and Fog 62 16.7 62 16.7 100 100 N 3 6 30.03 1017 1 2 0.00 0.00
3:36 am 03:36 Cloudy with Mist and Fog 63 17.2 63 17.2 100 100 NNE 3 6 30.03 1017 3 5 0.00 0.00
3:53 am 03:53 Cloudy 63 17.2 63 17.2 100 100 Calm 30.02 1017 10 16 0.00 0.00
4:03 am 04:03 Cloudy 63 17.2 63 17.2 100 100 Calm 30.06 1018 10 16 0.00 0.00
4:43 am 04:43 Cloudy 62 16.7 62 16.7 100 100 Calm 30.06 1018 10 16 0.00 0.00
4:53 am 04:53 Cloudy 62 16.7 62 16.7 100 100 Calm 30.03 1017 10 16 0.00 0.00
5:17 am 05:17 Cloudy 62 16.7 62 16.7 100 100 Calm 30.06 1018 10 16 0.00 0.00
5:41 am 05:41 Cloudy with Mist and Fog 61 16.1 61 16.1 100 100 Calm 30.06 1018 2 3 0.00 0.00
5:50 am 05:50 Cloudy 61 16 61 16 100 100 Calm 30.06 1018 7 11 0.00 0.00
5:53 am 05:53 Cloudy 61 16.1 61 16.1 100 100 Calm 30.05 1018 7 11 0.00 0.00
6:53 am 06:53 Mostly Cloudy 60 15.6 60 15.6 100 100 Calm 30.06 1018 10 16 0.00 0.00
7:32 am 07:32 Mostly Cloudy 59 15 59 15 100 100 Calm 30.09 1019 10 16 0.00 0.00
7:53 am 07:53 Mostly Cloudy 60 15.6 60 15.6 100 100 Calm 30.08 1019 10 16 0.00 0.00
8:18 am 08:18 Mostly Cloudy 58 14.4 58 14.4 100 100 Calm 30.12 1020 7 11 0.00 0.00
8:53 am 08:53 Cloudy 61 16.1 61 16.1 100 100 Calm 30.11 1020 10 16 0.00 0.00
9:32 am 09:32 Cloudy 62 16.7 61 16.1 96 96 Calm 30.15 1021 10 16 0.00 0.00
9:53 am 09:53 Cloudy 62 16.7 61 16.1 96 96 N 3 6 30.13 1020 10 16 0.00 0.00
10:53 am 10:53 Cloudy with Light Rain 61 16.1 60 15.6 97 97 Calm 30.14 1021 4 6 0.06 1.52
11:53 am 11:53 Cloudy 62 16.7 59 15 90 90 Calm 30.12 1020 10 16 0.01 0.25
12:00 pm 12:00 Cloudy 62 16.7 60 15.6 93 93 NNW 5 7 30.15 1021 10 16 0.00 0.00
12:53 pm 12:53 Cloudy 62 16.7 59 15 90 90 NNW 3 6 30.11 1020 10 16 0.00 0.00
1:00 pm 13:00 Cloudy 62 16.7 59 15 90 90 WNW 3 6 30.12 1020 10 16 0.00 0.00
1:53 pm 13:53 Cloudy 63 17.2 58 14.4 84 84 NW 5 7 30.11 1020 10 16 0.00 0.03
2:53 pm 14:53 Mostly Sunny 64 17.8 58 14.4 81 81 VRB 3 6 30.09 1019 10 16 0.00 0.03
3:53 pm 15:53 Partly Cloudy 64 17.8 57 13.9 78 78 WNW 5 7 30.10 1019 10 16 0.00 0.00
4:53 pm 16:53 Sunny 63 17.2 57 13.9 81 81 Calm 30.11 1020 10 16 0.00 0.00
5:53 pm 17:53 Clear 60 15.6 59 15 96 96 Calm 30.13 1020 10 16 0.00 0.00
6:53 pm 18:53 Mostly Clear 59 15 58 14.4 96 96 Calm 30.15 1021 10 16 0.00 0.00
7:53 pm 19:53 Clear 58 14.4 57 13.9 97 97 NNW 3 6 30.16 1021 10 16 0.00 0.00
8:53 pm 20:53 Clear 58 14.4 56 13.3 93 93 VRB 5 7 30.15 1021 10 16 0.00 0.00
9:53 pm 21:53 Clear 57 13.9 56 13.3 96 96 Calm 30.16 1021 10 16 0.00 0.00
10:53 pm 22:53 Partly Cloudy 56 13.3 56 13.3 100 100 Calm 30.16 1021 10 16 0.00 0.00
11:53 pm 23:53 Partly Cloudy 54 12.2 54 12.2 100 100 Calm 30.16 1022 10 16 0.00 0.00

Powered by AerisWeather